User: anonymous   Login
Location: Berville
(49.1893°N, 2.0748°E)
Time: 07:32:11
(UTC+00:00)
Language:

ATLAS CENTAUR R/B - Orbit

View from above orbital plane
View from above orbital plane
View from above satellite
View from above satellite

Ground track
Ground track

The orbit data is extracted from the following two-line orbital elements,

1 38770U 12048N   24105.85658638 0.00016000  00000-0  76283-3 0    00
2 38770  64.6563  39.9855 0098454  46.6115 313.3885 15.14559410    05
Epoch (UTC): 14 April 2024 20:33:29
Eccentricity: 0.0098454
inclination: 64.6563°
perigee height: 454 km
apogee height: 590 km
right ascension of ascending node: 39.9855°
argument of perigee: 46.6115°
revolutions per day: 15.14559410
mean anomaly at epoch: 313.3885°
orbit number at epoch: 0

The dashed part of the orbit path shows where the satellite is in the earth's shadow,  

DLR